Time,TemperatureF,DewpointF,PressureIn,WindDirection,WindDirectionDegrees,WindSpeedMPH,WindSpeedGustMPH,Humidity,HourlyPrecipIn,Conditions,Clouds,dailyrainin,SoftwareType,DateUTC
2013-09-23 00:11:00,52.3,52.0,29.82,WNW,292,4.7,-999.0,99,-99.99,,,0.00,Acu-Link.com,2013-09-23 04:11:00,
2013-09-23 00:26:00,52.2,51.9,29.82,NW,315,5.8,-999.0,99,-99.99,,,0.00,Acu-Link.com,2013-09-23 04:26:00,
2013-09-23 00:41:00,52.0,51.7,29.82,West,270,5.3,-999.0,99,-99.99,,,0.00,Acu-Link.com,2013-09-23 04:41:00,
2013-09-23 00:56:00,52.0,51.7,29.83,WNW,292,8.3,-999.0,99,-99.99,,,0.00,Acu-Link.com,2013-09-23 04:56:00,
2013-09-23 01:12:00,52.0,51.7,29.82,West,270,6.8,-999.0,99,-99.99,,,0.00,Acu-Link.com,2013-09-23 05:12:00,
2013-09-23 01:27:00,51.6,51.3,29.83,West,270,6.3,-999.0,99,-99.99,,,0.00,Acu-Link.com,2013-09-23 05:27:00,
2013-09-23 01:42:00,51.3,12.7,29.83,West,270,5.8,-999.0,21,-99.99,,,0.00,Acu-Link.com,2013-09-23 05:42:00,
2013-09-23 01:57:00,50.7,40.5,29.84,WNW,292,5.3,-999.0,68,-99.99,,,0.00,Acu-Link.com,2013-09-23 05:57:00,
2013-09-23 02:12:00,50.4,45.8,29.84,NW,315,4.7,-999.0,84,-99.99,,,0.00,Acu-Link.com,2013-09-23 06:12:00,
2013-09-23 02:28:00,49.8,49.0,29.84,WSW,247,3.2,-999.0,97,-99.99,,,0.00,Acu-Link.com,2013-09-23 06:28:00,
2013-09-23 02:43:00,49.3,49.0,29.84,NW,315,4.7,-999.0,99,-99.99,,,0.00,Acu-Link.com,2013-09-23 06:43:00,
2013-09-23 02:58:00,48.6,48.3,29.85,WNW,292,4.2,-999.0,99,-99.99,,,0.00,Acu-Link.com,2013-09-23 06:58:00,
2013-09-23 03:14:00,48.0,47.7,29.85,WNW,292,2.2,-999.0,99,-99.99,,,0.00,Acu-Link.com,2013-09-23 07:14:00,
2013-09-23 03:29:00,47.8,47.5,29.85,West,270,3.2,-999.0,99,-99.99,,,0.00,Acu-Link.com,2013-09-23 07:29:00,
2013-09-23 03:44:00,47.8,47.5,29.85,WSW,247,3.7,-999.0,99,-99.99,,,0.00,Acu-Link.com,2013-09-23 07:44:00,
2013-09-23 03:59:00,48.2,47.9,29.86,West,270,3.7,-999.0,99,-99.99,,,0.00,Acu-Link.com,2013-09-23 07:59:00,
2013-09-23 04:15:00,48.6,46.4,29.86,WSW,247,3.2,-999.0,92,-99.99,,,0.00,Acu-Link.com,2013-09-23 08:15:00,
2013-09-23 04:30:00,48.9,42.0,29.86,WNW,292,6.8,-999.0,77,-99.99,,,0.00,Acu-Link.com,2013-09-23 08:30:00,
2013-09-23 04:45:00,49.5,37.4,29.86,NNE,22,6.3,-999.0,63,-99.99,,,0.00,Acu-Link.com,2013-09-23 08:45:00,
2013-09-23 05:00:00,49.6,34.6,29.87,West,270,7.3,-999.0,56,-99.99,,,0.00,Acu-Link.com,2013-09-23 09:00:00,
2013-09-23 05:15:00,49.1,39.0,29.87,NW,315,7.3,-999.0,68,-99.99,,,0.00,Acu-Link.com,2013-09-23 09:15:00,
2013-09-23 05:30:00,48.2,43.9,29.88,WNW,292,7.3,-999.0,85,-99.99,,,0.00,Acu-Link.com,2013-09-23 09:30:00,
2013-09-23 05:45:00,47.3,47.0,29.89,WNW,292,3.7,-999.0,99,-99.99,,,0.00,Acu-Link.com,2013-09-23 09:45:00,
2013-09-23 06:01:00,45.7,45.4,29.90,West,270,1.7,-999.0,99,-99.99,,,0.00,Acu-Link.com,2013-09-23 10:01:00,
2013-09-23 06:16:00,45.1,44.8,29.91,WNW,292,3.2,-999.0,99,-99.99,,,0.00,Acu-Link.com,2013-09-23 10:16:00,
2013-09-23 06:31:00,44.8,44.5,29.91,West,270,2.7,-999.0,99,-99.99,,,0.00,Acu-Link.com,2013-09-23 10:31:00,
2013-09-23 06:46:00,44.8,44.5,29.92,West,270,2.2,-999.0,99,-99.99,,,0.00,Acu-Link.com,2013-09-23 10:46:00,
2013-09-23 07:02:00,45.7,45.4,29.92,NE,45,3.2,-999.0,99,-99.99,,,0.00,Acu-Link.com,2013-09-23 11:02:00,
2013-09-23 07:17:00,47.5,47.2,29.93,WNW,292,2.7,-999.0,99,-99.99,,,0.00,Acu-Link.com,2013-09-23 11:17:00,
2013-09-23 07:32:00,48.4,48.1,29.92,West,270,3.7,-999.0,99,-99.99,,,0.00,Acu-Link.com,2013-09-23 11:32:00,
2013-09-23 07:47:00,49.5,39.8,29.93,NW,315,5.3,-999.0,69,-99.99,,,0.00,Acu-Link.com,2013-09-23 11:47:00,
2013-09-23 08:02:00,50.5,22.5,29.93,NW,315,5.8,-999.0,33,-99.99,,,0.00,Acu-Link.com,2013-09-23 12:02:00,
2013-09-23 08:17:00,51.6,39.4,29.93,WSW,247,4.2,-999.0,63,-99.99,,,0.00,Acu-Link.com,2013-09-23 12:17:00,
2013-09-23 08:33:00,53.4,52.8,29.93,NE,45,6.3,-999.0,98,-99.99,,,0.00,Acu-Link.com,2013-09-23 12:33:00,
2013-09-23 09:03:00,53.8,53.2,29.93,WSW,247,3.7,-999.0,98,-99.99,,,0.00,Acu-Link.com,2013-09-23 13:03:00,
2013-09-23 09:18:00,55.2,54.9,29.92,West,270,8.9,-999.0,99,-99.99,,,0.00,Acu-Link.com,2013-09-23 13:18:00,
2013-09-23 09:33:00,55.4,49.3,29.92,West,270,6.3,-999.0,80,-99.99,,,0.00,Acu-Link.com,2013-09-23 13:33:00,
2013-09-23 09:48:00,56.3,9.3,29.92,WSW,247,11.4,-999.0,15,-99.99,,,0.00,Acu-Link.com,2013-09-23 13:48:00,
2013-09-23 10:03:00,56.7,-6.7,29.92,NW,315,12.5,-999.0,7,-99.99,,,0.00,Acu-Link.com,2013-09-23 14:03:00,
2013-09-23 10:18:00,57.0,23.4,29.91,West,270,7.8,-999.0,27,-99.99,,,0.00,Acu-Link.com,2013-09-23 14:18:00,
2013-09-23 10:33:00,56.8,56.2,29.91,WNW,292,11.9,-999.0,98,-99.99,,,0.00,Acu-Link.com,2013-09-23 14:33:00,
2013-09-23 10:49:00,57.4,56.8,29.91,NW,315,10.9,-999.0,98,-99.99,,,0.00,Acu-Link.com,2013-09-23 14:49:00,
2013-09-23 11:04:00,58.5,57.9,29.91,West,270,14.0,-999.0,98,-99.99,,,0.00,Acu-Link.com,2013-09-23 15:04:00,
2013-09-23 11:19:00,59.2,58.6,29.91,WNW,292,9.9,-999.0,98,-99.99,,,0.00,Acu-Link.com,2013-09-23 15:19:00,
2013-09-23 11:34:00,59.0,58.4,29.91,NW,315,5.8,-999.0,98,-99.99,,,0.00,Acu-Link.com,2013-09-23 15:34:00,
2013-09-23 11:49:00,58.6,58.0,29.91,NE,45,7.3,-999.0,98,-99.99,,,0.00,Acu-Link.com,2013-09-23 15:49:00,
2013-09-23 12:04:00,60.1,59.5,29.90,WNW,292,4.2,-999.0,98,-99.99,,,0.00,Acu-Link.com,2013-09-23 16:04:00,
2013-09-23 12:20:00,61.3,60.7,29.90,NW,315,9.4,-999.0,98,-99.99,,,0.00,Acu-Link.com,2013-09-23 16:20:00,
2013-09-23 12:35:00,61.5,60.9,29.90,WSW,247,11.9,-999.0,98,-99.99,,,0.00,Acu-Link.com,2013-09-23 16:35:00,
2013-09-23 12:50:00,62.2,61.6,29.89,NW,315,8.3,-999.0,98,-99.99,,,0.00,Acu-Link.com,2013-09-23 16:50:00,
2013-09-23 13:05:00,62.4,61.8,29.89,West,270,11.9,-999.0,98,-99.99,,,0.00,Acu-Link.com,2013-09-23 17:05:00,
2013-09-23 13:20:00,62.1,61.5,29.89,NE,45,13.0,-999.0,98,-99.99,,,0.00,Acu-Link.com,2013-09-23 17:20:00,
2013-09-23 13:35:00,63.1,62.5,29.89,WNW,292,11.4,-999.0,98,-99.99,,,0.00,Acu-Link.com,2013-09-23 17:35:00,
2013-09-23 13:50:00,63.5,62.9,29.88,NE,45,11.9,-999.0,98,-99.99,,,0.00,Acu-Link.com,2013-09-23 17:50:00,
2013-09-23 14:05:00,63.9,63.3,29.88,WSW,247,7.3,-999.0,98,-99.99,,,0.00,Acu-Link.com,2013-09-23 18:05:00,
2013-09-23 14:20:00,63.9,63.3,29.88,ENE,67,4.7,-999.0,98,-99.99,,,0.00,Acu-Link.com,2013-09-23 18:20:00,
2013-09-23 14:35:00,64.2,63.9,29.88,NNE,22,12.5,-999.0,99,-99.99,,,0.00,Acu-Link.com,2013-09-23 18:35:00,
2013-09-23 14:50:00,64.6,64.3,29.87,West,270,7.8,-999.0,99,-99.99,,,0.00,Acu-Link.com,2013-09-23 18:50:00,
2013-09-23 15:06:00,64.6,64.3,29.88,East,90,4.7,-999.0,99,-99.99,,,0.00,Acu-Link.com,2013-09-23 19:06:00,
2013-09-23 15:21:00,64.6,64.3,29.87,WSW,247,5.8,-999.0,99,-99.99,,,0.00,Acu-Link.com,2013-09-23 19:21:00,
2013-09-23 15:36:00,64.6,64.3,29.87,West,270,7.8,-999.0,99,-99.99,,,0.00,Acu-Link.com,2013-09-23 19:36:00,
2013-09-23 15:51:00,64.6,64.3,29.87,West,270,10.9,-999.0,99,-99.99,,,0.00,Acu-Link.com,2013-09-23 19:51:00,
2013-09-23 16:06:00,63.5,63.2,29.87,East,90,3.7,-999.0,99,-99.99,,,0.00,Acu-Link.com,2013-09-23 20:06:00,
2013-09-23 16:21:00,63.5,63.2,29.87,West,270,8.9,-999.0,99,-99.99,,,0.00,Acu-Link.com,2013-09-23 20:21:00,
2013-09-23 16:36:00,63.3,63.0,29.87,WNW,292,8.9,-999.0,99,-99.99,,,0.00,Acu-Link.com,2013-09-23 20:36:00,
2013-09-23 16:51:00,63.5,63.2,29.88,East,90,9.9,-999.0,99,-99.99,,,0.00,Acu-Link.com,2013-09-23 20:51:00,
2013-09-23 17:06:00,63.0,62.7,29.89,WNW,292,8.3,-999.0,99,-99.99,,,0.00,Acu-Link.com,2013-09-23 21:06:00,
2013-09-23 17:21:00,62.6,62.3,29.89,SSE,157,5.3,-999.0,99,-99.99,,,0.00,Acu-Link.com,2013-09-23 21:21:00,
2013-09-23 17:36:00,62.2,61.9,29.89,NW,315,7.8,-999.0,99,-99.99,,,0.00,Acu-Link.com,2013-09-23 21:36:00,
2013-09-23 17:51:00,61.9,61.6,29.90,West,270,9.4,-999.0,99,-99.99,,,0.00,Acu-Link.com,2013-09-23 21:51:00,
2013-09-23 18:06:00,60.8,52.5,29.90,East,90,5.8,-999.0,74,-99.99,,,0.00,Acu-Link.com,2013-09-23 22:06:00,
2013-09-23 18:22:00,59.4,25.4,29.91,WNW,292,7.3,-999.0,27,-99.99,,,0.00,Acu-Link.com,2013-09-23 22:22:00,
2013-09-23 18:37:00,58.5,45.5,29.91,WNW,292,2.2,-999.0,62,-99.99,,,0.00,Acu-Link.com,2013-09-23 22:37:00,
2013-09-23 18:52:00,57.2,56.6,29.92,SSE,157,0.0,-999.0,98,-99.99,,,0.00,Acu-Link.com,2013-09-23 22:52:00,
2013-09-23 19:07:00,55.6,55.3,29.92,West,270,1.7,-999.0,99,-99.99,,,0.00,Acu-Link.com,2013-09-23 23:07:00,
2013-09-23 19:23:00,54.5,39.1,29.93,WNW,292,1.1,-999.0,56,-99.99,,,0.00,Acu-Link.com,2013-09-23 23:23:00,
2013-09-23 19:38:00,53.2,52.9,29.93,West,270,2.2,-999.0,99,-99.99,,,0.00,Acu-Link.com,2013-09-23 23:38:00,
2013-09-23 19:53:00,52.7,52.4,29.94,WNW,292,2.2,-999.0,99,-99.99,,,0.00,Acu-Link.com,2013-09-23 23:53:00,
2013-09-23 20:09:00,51.8,51.5,29.94,SW,225,2.2,-999.0,99,-99.99,,,0.00,Acu-Link.com,2013-09-24 00:09:00,
2013-09-23 20:24:00,51.1,50.8,29.94,West,270,1.7,-999.0,99,-99.99,,,0.00,Acu-Link.com,2013-09-24 00:24:00,
2013-09-23 20:39:00,50.4,50.1,29.94,ESE,112,1.7,-999.0,99,-99.99,,,0.00,Acu-Link.com,2013-09-24 00:39:00,
2013-09-23 20:54:00,49.5,49.2,29.94,West,270,2.2,-999.0,99,-99.99,,,0.00,Acu-Link.com,2013-09-24 00:54:00,
2013-09-23 21:09:00,49.3,49.0,29.95,West,270,2.7,-999.0,99,-99.99,,,0.00,Acu-Link.com,2013-09-24 01:09:00,
2013-09-23 21:25:00,49.1,48.8,29.95,NE,45,0.0,-999.0,99,-99.99,,,0.00,Acu-Link.com,2013-09-24 01:25:00,
2013-09-23 21:40:00,48.2,47.9,29.96,SE,135,0.0,-999.0,99,-99.99,,,0.00,Acu-Link.com,2013-09-24 01:40:00,
2013-09-23 21:55:00,47.3,47.0,29.96,WSW,247,0.0,-999.0,99,-99.99,,,0.00,Acu-Link.com,2013-09-24 01:55:00,
2013-09-23 22:10:00,46.4,46.1,29.96,ESE,112,0.0,-999.0,99,-99.99,,,0.00,Acu-Link.com,2013-09-24 02:10:00,
2013-09-23 22:25:00,46.0,45.7,29.97,ESE,112,0.0,-999.0,99,-99.99,,,0.00,Acu-Link.com,2013-09-24 02:25:00,
2013-09-23 22:41:00,45.7,45.4,29.97,South,180,1.1,-999.0,99,-99.99,,,0.00,Acu-Link.com,2013-09-24 02:41:00,
2013-09-23 22:56:00,45.7,45.4,29.97,West,270,1.7,-999.0,99,-99.99,,,0.00,Acu-Link.com,2013-09-24 02:56:00,
2013-09-23 23:11:00,46.0,45.7,29.98,WNW,292,3.2,-999.0,99,-99.99,,,0.00,Acu-Link.com,2013-09-24 03:11:00,
2013-09-23 23:26:00,46.8,46.5,29.98,NNE,22,0.0,-999.0,99,-99.99,,,0.00,Acu-Link.com,2013-09-24 03:26:00,
2013-09-23 23:42:00,45.9,45.6,29.98,WSW,247,2.7,-999.0,99,-99.99,,,0.00,Acu-Link.com,2013-09-24 03:42:00,
2013-09-23 23:57:00,46.6,46.3,29.98,West,270,3.2,-999.0,99,-99.99,,,0.00,Acu-Link.com,2013-09-24 03:57:00,